Lakehurst NAS, NJ

7:48 AM EST on December 12, 2017 (GMT -0500)
Lakehurst Naes

Weather History for KNEL - February, 2014

Change the Weather History Date:

Sunday, February 23, 2014

  Actual Average Record
Temperature  
Mean Temperature 45 °F -  
Max Temperature 39 °F 42 °F 75 °F (2017)
Min Temperature 30 °F 30 °F 15 °F (1999)
Degree Days  
Heating Degree Days 20    
Moisture  
Dew Point 30 °F    
Average Humidity 56    
Maximum Humidity 82    
Minimum Humidity 35    
Precipitation  
Precipitation 0.00 in - - ()
Sea Level Pressure  
Sea Level Pressure 29.95 in    
Wind  
Wind Speed 6 mph (WSW)    
Max Wind Speed 16 mph    
Max Gust Speed 17 mph    
Averages and records for this station are not official NWS values.
T = Trace of Precipitation, MM = Missing Value Source: NWS Daily Summary

Daily Weather History Graph

Daily Weather History Graph

Search for Another Location

Airport or City:

Trip Planner

Search our weather history database for the weather conditions in past years. The results will help you decide how hot, cold, wet, or windy it might be!

Date:

Astronomy

Feb. 23, 2014 Rise Set
Actual Time 6:39 AM EST 5:42 PM EST
Civil Twilight 6:12 AM EST 6:09 PM EST
Nautical Twilight 5:40 AM EST 6:41 PM EST
Astronomical Twilight 5:09 AM EST 7:12 PM EST
Moon 1:35 AM EST (2/23) 11:42 AM EST (2/23)
Length of Visible Light 11h 57m
Length of Day
11h 03m
Last Quarter, 39% of the Moon is Illuminated
Feb 23
Last Quarter
Mar 1
New
Mar 8
First Quarter
Mar 16
Full
Mar 23
Last Quarter

Hourly Weather History & Observations

Time (EST) Temp. Windchill Dew Point Humidity Pressure Visibility Wind Dir Wind Speed Gust Speed Precip Events Conditions
12:00 AM 42.1 °F 37.7 °F 28.9 °F 60% 30.03 in - WSW 6.9 mph - N/A   Clear
1:00 AM 43.0 °F 38.2 °F 28.9 °F 58% 30.02 in - WSW 8.1 mph - N/A   Clear
2:00 AM 43.0 °F 38.8 °F 28.9 °F 58% 30.01 in - WSW 6.9 mph - N/A   Clear
3:00 AM 43.0 °F 38.8 °F 30.0 °F 60% 30.01 in - SW 6.9 mph - N/A   Clear
4:00 AM 42.1 °F 39.2 °F 30.9 °F 65% 30.01 in - SW 4.6 mph - N/A   Clear
5:00 AM 41.0 °F 39.0 °F 30.9 °F 67% 30.00 in - SSW 3.5 mph - N/A   Clear
6:00 AM 42.1 °F 39.2 °F 32.0 °F 67% 30.01 in - WSW 4.6 mph - N/A   Clear
7:00 AM 41.0 °F 37.1 °F 30.9 °F 67% 30.02 in - West 5.8 mph - N/A   Clear
8:00 AM 43.0 °F - 32.0 °F 65% 30.02 in - Calm Calm - N/A   Clear
9:00 AM 48.9 °F - 32.0 °F 52% 30.00 in - WSW 3.5 mph - N/A   Clear
10:00 AM 53.1 °F - 30.9 °F 43% 30.00 in - West 16.1 mph - N/A   Clear
11:00 AM 54.0 °F - 30.0 °F 40% 29.97 in - WSW 6.9 mph - N/A   Clear
12:00 PM 57.0 °F - 30.0 °F 36% 29.93 in - West 6.9 mph - N/A   Clear
1:00 PM 57.0 °F - 30.9 °F 37% 29.89 in - Variable 5.8 mph - N/A   Clear
2:00 PM 57.9 °F - 30.0 °F 35% 29.88 in - Calm Calm - N/A   Clear
3:00 PM 57.9 °F - 30.0 °F 35% 29.88 in - NW 11.5 mph 17.3 mph N/A   Clear
4:00 PM 55.9 °F - 30.0 °F 37% 29.88 in - NW 6.9 mph - N/A   Clear
5:00 PM 54.0 °F - 28.0 °F 37% 29.87 in - WNW 3.5 mph - N/A   Clear
6:00 PM 45.0 °F - 28.9 °F 53% 29.87 in - Calm Calm - N/A   Clear
7:00 PM 37.0 °F - 30.0 °F 76% 29.88 in - Calm Calm - N/A   Clear
8:00 PM 37.9 °F 35.5 °F 30.0 °F 73% 29.88 in - WNW 3.5 mph - N/A   Clear
9:00 PM 36.0 °F - 28.0 °F 73% 29.87 in - Calm Calm - N/A   Clear
10:00 PM 33.1 °F - 27.0 °F 78% 29.88 in - Calm Calm - N/A   Clear
11:00 PM 30.9 °F - 26.1 °F 82% 29.88 in - Calm Calm - N/A   Clear